Location: The Saddle
(36.8333°N, 80.3417°W)
Time: 10:38:09
(UTC-05:00)

S-56A Canister/Altair - Pass Details

Date: 17 December 2023
Orbit: 640 x 2488 km, 38.9° (Epoch: 25 February)

Event Time Altitude Azimuth Distance (km) Brightness Sun altitude
Rises 05:36:38 0° 209° (SSW) 5,614 11.8 -21.6°
Reaches altitude 10° 05:41:20 10° 200° (SSW) 4,329 11.3 -20.6°
Maximum altitude 05:50:13 28° 147° (SSE) 2,528 10.6 -18.9°
Drops below altitude 10° 05:56:43 10° 92° (E) 3,124 11.8 -17.7°
Sets 05:59:30 0° 80° (E) 3,848 12.3 -17.1°
